GW5351 Weather Reports


time (UTC)temp
C
wind
direction
speed
KPH
gust
KPH
rain 1hr
cm
rain 24hr
cm
rain mn
cm
humidity
%
barometer
mb
20260502151849 18 320 6.4 17.7 0.00 0.00 0.00 73 1021.9
20260502151345 17 0 11.3 16.1 0.00 0.00 0.00 74 1021.5
20260502150843 17 334 6.4 11.3 0.00 0.00 0.00 75 1021.6
20260502150339 17 300 9.7 12.9 0.00 0.00 0.00 76 1021.8
20260502130727 11 238 1.6 6.4 0.00 0.00 0.00 99 1020.6
20260502130225 11 300 3.2 6.4 0.00 0.00 0.00 99 1020.4
20260502123711 11 229 0.0 3.2 0.00 0.00 0.00 99 1020.0
20260502123208 10 243 1.6 1.6 0.00 0.00 0.00 99 1020.0
20260502122704 10 243 0.0 1.6 0.00 0.00 0.00 99 1019.9
20260502122200 10 237 0.0 0.0 0.00 0.00 0.00 99 1020.0
20260502121659 10 234 0.0 1.6 0.00 0.00 0.00 99 1019.7
20260502121156 10 237 0.0 0.0 0.00 0.00 0.00 99 1019.7
20260502120653 10 243 0.0 0.0 0.00 0.00 0.00 99 1019.7
20260502120150 10 243 0.0 0.0 0.00 0.00 0.00 99 1019.4
20260502115647 10 243 0.0 0.0 0.00 0.00 0.00 99 1019.6
20260502115143 10 243 0.0 0.0 0.00 0.00 0.00 99 1019.6
20260502114639 10 243 0.0 1.6 0.00 0.00 0.00 99 1019.5
20260502114137 10 243 0.0 0.0 0.00 0.00 0.00 99 1019.4
20260502113634 10 243 0.0 0.0 0.00 0.00 0.00 99 1019.4
20260502113132 10 243 0.0 0.0 0.00 0.00 0.00 99 1019.4
20260502112630 10 243 0.0 0.0 0.00 0.00 0.00 99 1019.3
20260502112127 10 243 0.0 0.0 0.00 0.00 0.00 99 1019.1
20260502111625 10 227 0.0 0.0 0.00 0.00 0.00 99 1019.3
20260502111122 10 237 0.0 0.0 0.00 0.00 0.00 99 1019.0
20260502110620 10 237 0.0 0.0 0.00 0.00 0.00 99 1019.0
20260502110117 10 236 0.0 1.6 0.00 0.00 0.00 99 1019.1
20260502105614 10 244 0.0 0.0 0.00 0.00 0.00 99 1018.9
20260502105111 10 243 0.0 0.0 0.00 0.00 0.00 99 1018.8
20260502104608 10 243 0.0 3.2 0.00 0.00 0.00 99 1018.9
20260502104105 10 240 0.0 0.0 0.00 0.00 0.00 99 1019.0
20260502103603 10 243 0.0 0.0 0.00 0.00 0.00 98 1018.8
20260502103101 10 240 0.0 0.0 0.00 0.00 0.00 98 1018.9
20260502102557 10 239 0.0 1.6 0.00 0.00 0.00 98 1018.8
20260502102054 10 243 0.0 1.6 0.00 0.00 0.00 98 1018.6
20260502101552 10 269 3.2 4.8 0.00 0.00 0.00 98 1018.7
20260502101050 10 243 0.0 0.0 0.00 0.00 0.00 98 1018.6
20260502100548 10 243 1.6 1.6 0.00 0.00 0.00 98 1018.6
20260502091523 11 240 0.0 1.6 0.00 0.00 0.00 96 1017.7
20260502091020 11 274 1.6 3.2 0.00 0.00 0.00 96 1017.7
20260502090517 11 241 0.0 3.2 0.00 0.00 0.00 96 1017.5
20260502071412 12 339 3.2 6.4 0.00 0.00 0.00 94 1017.2
20260502070910 12 247 3.2 9.7 0.00 0.00 0.00 94 1017.3
20260502070408 12 11 6.4 9.7 0.00 0.00 0.00 94 1017.4
20260502065906 12 29 1.6 11.3 0.00 0.00 0.00 94 1017.3
20260502065404 12 254 3.2 11.3 0.00 0.00 0.00 94 1017.2
20260502064902 12 44 4.8 9.7 0.00 0.00 0.00 94 1017.4
20260502064400 12 187 1.6 11.3 0.00 0.00 0.00 94 1017.3
20260502063856 12 224 3.2 3.2 0.00 0.00 0.00 94 1017.4
20260502063354 12 355 8.0 9.7 0.00 0.00 0.00 94 1017.1
20260502062851 12 4 3.2 6.4 0.00 0.00 0.00 94 1017.2
20260502062349 12 15 9.7 12.9 0.00 0.00 0.00 94 1017.2
20260502061848 12 280 3.2 9.7 0.00 0.00 0.00 94 1017.0
20260502061345 12 1 4.8 12.9 0.00 0.00 0.00 94 1017.0
20260502060840 12 349 4.8 6.4 0.00 0.00 0.00 94 1017.1
20260502060336 12 325 3.2 12.9 0.00 0.00 0.00 95 1017.0
20260502055833 12 341 6.4 11.3 0.00 0.00 0.00 95 1017.0
20260502055331 12 192 4.8 9.7 0.00 0.00 0.00 95 1017.1
20260502054831 12 228 3.2 9.7 0.00 0.00 0.00 95 1017.0
20260502054328 12 259 3.2 12.9 0.00 0.00 0.00 95 1017.1
20260502053825 12 323 6.4 9.7 0.00 0.00 0.00 95 1017.1
20260502053322 12 352 8.0 9.7 0.00 0.00 0.00 95 1017.1
20260502052820 12 319 6.4 12.9 0.00 0.00 0.00 95 1017.2
20260502052318 12 340 6.4 14.5 0.00 0.00 0.00 96 1017.1
20260502051815 12 349 3.2 6.4 0.00 0.00 0.00 96 1017.2
20260502051314 12 338 9.7 12.9 0.00 0.00 0.00 96 1017.2
20260502050810 12 248 3.2 9.7 0.00 0.00 0.00 96 1017.1
20260502050306 12 326 8.0 12.9 0.00 0.00 0.00 97 1017.3
20260502045803 12 277 3.2 17.7 0.00 9.80 9.80 97 1016.9
20260502045300 12 273 4.8 11.3 0.00 9.80 9.80 98 1017.1
20260502044757 12 209 1.6 9.7 0.00 9.80 9.80 98 1016.9
20260502044253 12 322 4.8 9.7 0.00 9.80 9.80 98 1017.0
20260502043750 12 294 6.4 6.4 0.00 9.80 9.80 98 1016.8
20260502043248 12 220 3.2 12.9 0.00 9.80 9.80 99 1016.9
20260502042747 12 336 11.3 14.5 0.00 9.80 9.80 99 1016.7
20260502042245 12 333 4.8 9.7 0.00 9.80 9.80 99 1016.6
20260502041743 12 353 8.0 11.3 0.00 9.80 9.80 99 1016.7
20260502041240 12 350 6.4 9.7 0.00 9.80 9.80 99 1016.9
20260502040736 12 265 3.2 4.8 0.00 9.80 9.80 99 1016.7
20260502040233 12 251 1.6 6.4 0.00 9.80 9.80 99 1016.9
20260502035729 12 320 3.2 14.5 0.00 9.80 9.80 99 1017.1
20260502035226 12 355 4.8 12.9 0.00 9.80 9.80 99 1016.8
20260502034724 12 45 4.8 6.4 0.00 9.80 9.80 99 1017.0
20260502034222 12 219 1.6 9.7 0.00 9.80 9.80 99 1016.9
20260502033720 12 334 6.4 16.1 0.00 9.80 9.80 99 1016.9
20260502033217 12 44 6.4 11.3 0.00 9.80 9.80 99 1017.0
20260502032713 12 350 3.2 6.4 0.00 9.80 9.80 99 1016.9
20260502032209 12 7 3.2 4.8 0.00 9.80 9.80 99 1016.7
20260502031708 12 321 3.2 12.9 0.00 9.80 9.80 99 1016.6
20260502031205 12 353 8.0 12.9 0.00 9.80 9.80 99 1016.5
20260502030704 12 202 4.8 11.3 0.00 9.80 9.80 99 1016.6
20260502030201 12 295 9.7 11.3 0.00 9.80 9.80 99 1016.4
20260502025658 12 302 6.4 11.3 0.00 9.80 9.80 99 1016.3
20260502025156 12 334 4.8 9.7 0.00 9.80 9.80 99 1016.2
20260502024654 12 351 6.4 9.7 0.00 9.80 9.80 99 1016.0
20260502024152 12 223 6.4 9.7 0.00 9.80 9.80 99 1015.8
20260502023650 12 250 0.0 12.9 0.00 9.80 9.80 99 1015.3
20260502023147 12 303 6.4 17.7 0.00 9.80 9.80 99 1015.1
20260502022643 12 357 6.4 16.1 0.00 9.80 9.80 99 1015.1
20260502022141 12 2 9.7 14.5 0.00 9.80 9.80 99 1015.3
20260502021638 12 7 9.7 14.5 0.00 9.80 9.80 99 1015.3
20260502021135 12 243 6.4 11.3 0.00 9.80 9.80 99 1015.2
20260502020632 12 351 9.7 14.5 0.00 9.80 9.80 99 1015.2
20260502020129 12 341 9.7 12.9 0.00 9.80 9.80 99 1015.3
20260502015627 12 358 6.4 14.5 0.00 9.80 9.80 99 1015.2
20260502015123 12 272 1.6 14.5 0.00 9.80 9.80 99 1015.2
20260502014620 12 6 6.4 11.3 0.00 9.80 9.80 99 1015.0
20260502014117 12 0 4.8 14.5 0.18 9.80 9.80 99 1014.9
20260502013613 13 275 3.2 12.9 0.18 9.80 9.80 99 1014.7
20260502013109 13 330 9.7 14.5 0.00 9.78 9.78 99 1014.5
20260502012607 13 2 8.0 11.3 0.00 9.78 9.78 99 1014.4
20260502012105 13 34 6.4 12.9 0.13 9.78 9.78 99 1014.7
20260502011601 13 4 9.7 12.9 0.13 9.78 9.78 99 1014.8
20260502011057 13 266 1.6 9.7 0.00 9.75 9.75 99 1015.3
20260502010554 13 267 1.6 6.4 0.00 9.75 9.75 99 1015.2
20260502010050 13 218 1.6 6.4 0.00 9.75 9.75 99 1015.0
20260502005549 13 15 6.4 17.7 0.00 9.75 9.75 99 1014.5
20260502005046 13 251 1.6 12.9 0.00 9.75 9.75 99 1014.1
20260502004542 13 8 9.7 22.5 0.36 9.75 9.75 99 1013.8
20260502004038 13 339 8.0 16.1 0.48 9.75 9.75 99 1013.6
20260502003537 13 302 6.4 16.1 0.30 9.70 9.70 99 1013.5
20260502003033 13 340 9.7 11.3 0.30 9.68 9.68 99 1013.7
20260502002529 14 351 8.0 12.9 0.13 9.65 9.65 99 1014.3
20260502002027 14 265 1.6 4.8 0.18 9.63 9.63 99 1014.4
20260502001524 14 274 1.6 6.4 0.18 9.63 9.63 99 1014.5
20260502001021 14 6 6.4 9.7 0.13 9.60 9.60 99 1014.2
20260502000520 14 5 6.4 14.5 0.30 9.60 9.60 99 1013.8
20260502000017 15 307 3.2 4.8 0.30 9.58 9.58 99 1013.9
20260501235512 15 296 1.6 3.2 0.30 9.55 9.55 99 1013.7
20260501235008 15 324 4.8 6.4 0.48 9.53 9.53 99 1013.1
20260501234504 15 280 1.6 1.6 0.61 9.50 9.50 99 1013.8
20260501234002 15 293 0.0 3.2 0.48 9.45 9.45 99 1014.2
20260501233500 15 232 1.6 4.8 0.30 9.40 9.40 99 1013.5
20260501232955 15 355 4.8 9.7 0.30 9.37 9.37 99 1013.3
20260501232453 15 274 4.8 6.4 0.48 9.35 9.35 99 1013.2
20260501231950 15 331 1.6 4.8 0.43 9.32 9.32 99 1013.0
20260501231449 15 241 0.0 9.7 0.30 9.27 9.27 99 1012.2
20260501230946 15 91 3.2 14.5 0.30 9.25 9.25 99 1012.3
20260501230445 15 192 0.0 4.8 0.43 9.22 9.22 99 1012.5
20260501225942 15 19 3.2 6.4 0.61 9.17 9.17 99 1012.5
20260501225440 15 270 3.2 4.8 1.19 9.12 9.12 99 1012.4
20260501224935 15 311 3.2 3.2 1.80 9.04 9.04 99 1012.7
20260501224433 15 322 3.2 4.8 1.68 8.92 8.92 99 1012.1
20260501223930 15 268 4.8 6.4 0.43 8.71 8.71 99 1011.2
20260501223426 15 237 3.2 4.8 0.00 8.64 8.64 99 1011.1
20260501222921 15 170 3.2 11.3 0.00 8.64 8.64 99 1011.4
20260501222419 15 180 3.2 14.5 0.00 8.64 8.64 99 1010.9
20260501221915 15 329 11.3 24.1 0.00 8.64 8.64 99 1010.7
20260501221413 15 204 1.6 11.3 0.00 8.64 8.64 99 1011.1
20260501220910 15 244 1.6 9.7 0.00 8.64 8.64 99 1011.4
20260501220408 15 317 9.7 12.9 0.00 8.64 8.64 99 1011.9
20260501215904 15 291 3.2 11.3 0.18 8.64 8.64 99 1012.0
20260501215400 15 240 3.2 4.8 0.30 8.64 8.64 99 1012.2
20260501214856 15 18 8.0 20.9 0.30 8.61 8.61 99 1012.7
20260501214351 15 290 6.4 11.3 0.30 8.59 8.59 99 1012.8
20260501213847 15 2 3.2 11.3 0.61 8.56 8.56 99 1012.7
20260501213344 15 150 3.2 6.4 0.79 8.51 8.51 99 1012.6
20260501212840 15 283 3.2 11.3 0.61 8.43 8.43 99 1012.4
20260501212337 15 28 6.4 11.3 0.61 8.38 8.38 99 1012.2
20260501211834 15 211 3.2 6.4 0.30 8.31 8.31 99 1012.4
20260501211331 15 268 3.2 6.4 0.13 8.28 8.28 99 1012.2
20260501210828 15 9 4.8 11.3 0.18 8.26 8.26 99 1012.2
20260501210325 15 101 6.4 9.7 0.13 8.23 8.23 99 1011.7
20260501205821 15 9 4.8 6.4 0.30 8.23 8.23 99 1011.3
20260501205319 15 286 6.4 11.3 0.30 8.20 8.20 99 1010.8
20260501204815 15 304 4.8 12.9 0.18 8.15 8.15 99 1010.7
20260501204312 15 261 1.6 11.3 0.18 8.15 8.15 99 1011.4
20260501203808 15 11 4.8 6.4 0.18 8.13 8.13 99 1011.6
20260501203306 15 10 6.4 12.9 0.30 8.13 8.13 99 1011.6
20260501202802 16 350 4.8 9.7 0.30 8.10 8.10 99 1011.3
20260501202259 16 288 8.0 11.3 0.30 8.08 8.08 99 1011.2
20260501201756 16 319 3.2 11.3 0.30 8.05 8.05 99 1010.7
20260501201253 16 270 8.0 14.5 0.30 8.03 8.03 99 1010.7
20260501200750 16 1 6.4 12.9 0.30 8.00 8.00 99 1010.8
20260501200247 16 340 4.8 6.4 0.30 7.98 7.98 99 1011.8
20260501195744 16 274 6.4 11.3 0.13 7.95 7.95 99 1011.4
20260501195240 16 274 3.2 11.3 0.00 7.92 7.92 99 1011.7
20260501194736 16 321 3.2 4.8 0.18 7.92 7.92 99 1012.0
20260501194232 16 287 8.0 14.5 0.18 7.92 7.92 99 1011.7
20260501193729 16 315 8.0 12.9 0.00 7.90 7.90 99 1011.3
20260501193227 16 229 1.6 6.4 0.13 7.90 7.90 99 1011.4
20260501192724 16 343 4.8 6.4 0.61 7.90 7.90 99 1011.1
20260501192221 16 275 4.8 4.8 0.48 7.87 7.87 99 1011.2
20260501191719 16 27 6.4 6.4 0.13 7.82 7.82 99 1011.2
20260501191216 16 221 0.0 4.8 0.00 7.80 7.80 99 1011.5
20260501190712 16 217 0.0 6.4 0.00 7.80 7.80 99 1011.0
20260501190207 16 346 9.7 11.3 0.00 7.80 7.80 99 1010.9
20260501185704 16 253 1.6 11.3 0.00 7.80 7.80 99 1010.9
20260501185200 16 277 0.0 9.7 0.00 7.80 7.80 99 1010.1
20260501184656 16 257 4.8 11.3 0.00 7.80 7.80 99 1010.3
20260501184156 16 182 3.2 4.8 0.00 7.80 7.80 99 1010.9
20260501183653 16 323 8.0 9.7 0.00 7.80 7.80 99 1011.0
20260501183149 16 206 1.6 6.4 0.00 7.80 7.80 99 1011.1
20260501182646 16 243 6.4 9.7 0.00 7.80 7.80 99 1010.2
20260501182143 16 291 3.2 12.9 0.00 7.80 7.80 99 1010.2
20260501181640 16 290 1.6 16.1 0.00 7.80 7.80 99 1009.6
20260501181137 16 324 3.2 14.5 0.18 7.80 7.80 99 1008.7
20260501180635 16 152 6.4 11.3 0.18 7.80 7.80 99 1009.2
20260501180131 16 212 6.4 11.3 0.13 7.77 7.77 99 1009.0
20260501175628 16 130 6.4 9.7 0.13 7.77 7.77 99 1008.9
20260501175125 16 218 6.4 9.7 0.00 7.75 7.75 99 1010.1
20260501174622 16 32 4.8 12.9 0.18 7.75 7.75 99 1011.0
20260501174120 16 314 3.2 14.5 0.30 7.75 7.75 99 1011.2
20260501173617 16 332 3.2 12.9 0.30 7.72 7.72 99 1011.4
20260501173113 16 300 9.7 11.3 0.30 7.70 7.70 99 1011.8
20260501172609 16 5 3.2 11.3 0.13 7.67 7.67 99 1012.4
20260501172104 16 269 0.0 11.3 0.00 7.65 7.65 99 1012.6
20260501171601 16 229 3.2 16.1 0.18 7.65 7.65 99 1012.4
20260501171058 16 341 4.8 12.9 0.18 7.65 7.65 99 1012.0
20260501170554 16 9 4.8 12.9 0.00 7.62 7.62 99 1012.5
20260501170051 16 330 4.8 12.9 0.00 7.62 7.62 99 1012.3
20260501165549 16 274 1.6 9.7 0.00 7.62 7.62 99 1012.1
20260501165046 16 42 4.8 11.3 0.13 7.62 7.62 99 1012.0
20260501164544 16 338 1.6 6.4 0.13 7.62 7.62 99 1012.4
20260501164040 16 302 4.8 11.3 0.00 7.59 7.59 99 1012.8
20260501163537 16 187 1.6 6.4 0.18 7.59 7.59 99 1013.3
20260501163034 16 251 1.6 11.3 0.30 7.59 7.59 99 1013.1
20260501162530 16 2 6.4 9.7 0.30 7.57 7.57 99 1013.7
20260501162027 16 267 3.2 6.4 0.48 7.54 7.54 99 1013.8
20260501161524 16 325 4.8 9.7 0.30 7.49 7.49 99 1013.9
20260501161021 16 357 6.4 14.5 0.48 7.47 7.47 99 1013.8
20260501160518 16 20 9.7 14.5 0.48 7.42 7.42 99 1013.8
20260501160015 16 254 1.6 6.4 0.61 7.39 7.39 99 1014.1
20260501155511 16 157 3.2 3.2 0.61 7.34 7.34 99 1014.0
20260501155009 16 20 6.4 9.7 0.79 7.29 7.29 99 1014.2
20260501154506 16 9 4.8 12.9 1.50 7.24 7.24 99 1014.3
20260501154003 16 251 6.4 12.9 1.85 7.14 7.14 99 1014.2